Theta_e
346 357 363 363 363 364 365 365 365 364 363 363 363 364 364 363 363 364 363 364 364 365 364 360 360 359 357 356 358 359 360 359 360 354 353 351 358 361 362 363 363 356 361
348 355 363 363 363 363 363 364 364 364 361 362 362 363 363 363 363 362 363 363 362 360 360 358 356 353 357 358 356 357 357 355 359 359 357 354 360 361 360 360 358 357 360
349 353 359 362 362 361 362 362 362 362 362 362 362 361 359 357 362 361 361 361 361 360 359 358 359 358 357 358 358 356 357 356 357 358 359 355 354 359 359 358 360 360 359
351 354 353 359 358 357 357 356 356 356 356 357 358 360 361 360 360 359 359 358 357 355 353 354 357 349 348 350 356 361 359 356 355 357 355 356 353 359 358 359 359 359 358
350 352 352 357 356 354 353 352 352 352 352 352 354 355 355 354 354 355 357 356 353 350 350 350 353 355 348 345 351 360 359 358 358 355 349 347 349 356 359 360 358 357 359
348 351 353 356 355 352 351 350 351 350 350 351 352 351 350 350 350 349 349 350 351 352 352 350 352 352 355 357 358 358 359 359 356 351 351 347 345 359 362 361 360 358 358
345 348 350 355 353 350 346 345 347 347 347 347 347 346 348 349 348 348 348 348 348 348 348 349 350 351 355 357 356 357 357 356 350 346 343 341 345 356 359 361 360 359 360
343 345 346 351 350 348 346 346 346 346 348 347 346 347 349 348 349 348 347 341 339 342 347 349 349 350 351 354 355 355 354 353 347 345 344 342 346 354 357 354 359 359 359
342 343 342 339 340 346 347 347 347 346 345 344 343 342 344 347 347 346 342 338 339 339 338 342 343 347 350 352 351 353 353 352 344 346 345 343 354 356 357 352 359 358 358
340 339 333 335 334 333 335 347 346 345 344 339 336 335 333 331 333 337 342 340 341 341 338 340 342 343 348 349 350 350 349 350 341 342 344 342 353 360 357 357 354 355 356
330 330 332 330 326 328 333 339 344 344 340 335 329 331 324 319 320 320 328 331 331 337 341 343 344 344 347 349 349 348 349 340 336 338 341 348 353 358 358 355 353 356 356
324 326 330 330 328 327 334 328 326 328 327 324 320 318 318 316 318 319 322 326 327 329 330 334 337 341 335 326 337 342 340 340 335 335 335 346 351 356 356 354 351 350 356
326 328 330 328 328 327 327 327 325 325 323 323 319 316 314 315 314 314 315 314 315 322 317 320 319 320 319 319 320 323 330 337 338 336 335 343 344 348 353 353 349 348 347
325 326 328 329 328 328 327 326 323 321 320 320 316 314 313 313 312 312 312 313 313 314 314 315 316 315 314 315 315 315 317 323 333 338 338 345 348 349 349 353 353 351 350
325 327 327 328 329 328 325 326 321 319 319 316 315 314 313 311 309 308 309 311 311 311 312 313 313 312 312 312 312 313 315 317 321 327 335 341 342 342 341 348 351 353 349
327 326 327 327 326 323 323 322 320 317 315 315 312 311 311 309 307 307 308 309 308 310 309 311 311 310 310 311 312 312 313 315 317 320 332 333 340 342 344 346 348 348 349
327 326 324 325 324 320 319 321 319 316 314 313 311 310 311 308 307 305 306 307 307 308 307 309 309 309 310 311 310 312 313 315 316 318 320 327 334 340 341 343 345 344 344
327 324 322 323 320 319 315 315 315 314 312 312 311 309 310 309 308 305 304 304 306 306 307 310 310 310 310 310 310 311 312 313 314 316 317 318 328 332 337 341 342 342 345
326 323 320 319 317 317 313 313 314 312 312 311 309 308 308 309 308 305 303 304 305 308 309 310 309 309 308 306 307 309 309 310 311 314 316 317 319 329 331 338 342 341 342
325 323 320 318 315 314 312 311 312 311 311 309 308 307 308 307 307 303 303 304 305 308 309 309 307 307 304 305 308 307 306 307 309 310 313 318 319 320 330 332 331 335 340
323 320 318 315 313 312 310 308 308 307 308 308 307 307 307 307 307 303 303 304 305 304 307 307 305 304 302 304 302 303 304 306 307 307 310 318 320 319 326 330 329 328 331
321 319 316 314 313 311 312 310 311 310 308 308 307 306 308 307 306 305 303 304 304 304 303 303 304 302 302 302 299 300 298 300 304 308 312 318 313 320 325 328 329 328 327
319 317 315 314 312 310 312 310 308 308 305 303 304 304 306 307 307 306 305 305 305 304 303 303 303 302 299 303 303 303 298 297 300 307 311 313 310 316 321 324 325 326 327
318 317 314 312 311 311 309 308 305 303 301 302 302 304 305 307 306 308 307 306 306 305 303 304 306 304 305 303 301 306 306 304 299 298 306 309 308 315 319 318 319 319 321
319 314 314 312 311 311 309 306 305 303 303 305 306 305 305 305 306 308 308 307 306 305 305 304 304 306 306 302 300 303 304 303 304 300 298 302 307 314 316 317 317 318 321
316 314 313 311 310 310 309 308 306 305 304 303 304 304 305 305 306 308 311 310 306 308 306 305 305 304 304 306 304 302 304 302 301 301 300 301 302 310 314 314 315 317 320
Wind_Speed
5 9 15 15 15 16 17 17 12 11 11 9 10 10 10 11 10 10 10 9 10 8 6 4 4 3 2 1 3 2 1 5 12 13 11 12 7 8 7 10 11 11 13
8 10 15 16 16 16 17 18 17 14 13 12 12 10 10 9 7 8 7 7 6 6 4 3 3 2 4 4 4 3 3 5 6 12 15 14 11 11 10 8 3 10 11
12 10 13 16 17 18 18 18 18 17 16 13 11 9 8 7 6 6 6 7 5 3 3 4 5 7 11 12 10 7 5 5 5 6 9 7 8 12 9 7 13 15 12
12 9 11 17 17 18 18 18 17 16 16 15 13 13 13 9 8 7 7 7 7 6 6 5 4 2 5 11 16 8 6 6 6 8 5 6 10 15 12 9 13 16 14
11 11 13 18 18 19 19 19 18 18 17 16 15 15 15 15 14 13 11 9 6 4 3 3 2 2 5 3 16 11 8 6 6 6 6 6 5 11 12 9 10 11 16
12 12 15 18 18 20 19 19 18 19 18 17 17 14 10 9 10 9 9 9 10 10 8 3 1 5 7 12 13 11 9 8 6 4 5 6 7 15 20 18 16 15 13
11 11 13 18 18 18 18 18 17 16 15 15 15 15 13 9 9 9 8 8 7 7 8 10 7 6 7 8 10 9 7 8 4 5 5 2 4 19 15 20 15 15 15
15 10 12 18 18 17 16 16 16 16 16 17 19 19 16 6 6 6 7 7 8 8 9 10 11 10 9 8 9 9 9 9 8 4 5 3 8 18 19 20 22 15 14
14 11 7 8 14 17 14 13 13 14 17 19 21 23 23 13 12 3 2 4 7 7 9 9 10 11 11 12 13 12 12 12 6 5 8 5 6 20 21 11 16 15 17
11 10 8 6 5 7 7 12 13 14 16 18 19 22 23 22 22 17 6 11 12 10 9 11 11 11 11 12 15 16 16 13 5 5 6 6 9 15 20 19 19 21 22
12 7 6 6 6 6 7 8 9 14 17 17 14 18 13 10 11 16 20 23 24 22 13 15 16 13 12 13 14 16 17 6 5 5 5 11 12 14 22 25 27 23 23
10 9 9 8 8 7 7 6 7 8 5 7 7 8 7 8 10 13 16 22 23 23 21 19 17 14 12 6 4 8 2 4 3 6 7 16 15 14 20 23 15 16 22
11 7 8 7 7 7 6 4 3 3 4 5 7 6 6 7 6 7 6 7 7 16 8 11 11 9 13 10 8 6 8 5 4 6 10 18 20 20 15 28 37 18 35
11 9 9 8 7 7 4 4 4 4 4 5 6 8 8 6 7 8 6 9 6 6 9 9 7 10 12 12 11 11 11 10 6 4 6 20 20 18 18 16 25 29 41
12 11 9 8 6 6 6 4 4 4 4 6 8 9 8 7 7 7 7 7 8 8 9 9 9 9 11 13 13 11 12 12 12 7 5 18 20 18 21 22 21 30 34
12 8 8 7 7 7 5 5 3 4 5 9 8 6 8 6 5 7 7 5 7 7 7 6 7 7 8 8 10 13 13 12 12 12 8 8 19 16 20 21 21 19 29
8 9 7 8 7 7 6 5 4 5 6 7 7 7 9 6 5 5 6 4 5 6 6 5 5 6 6 7 9 9 10 12 11 13 10 9 8 19 18 17 12 9 14
9 10 11 10 9 7 7 5 4 5 5 8 6 5 7 6 6 5 4 4 5 4 4 5 5 5 6 7 9 8 8 9 12 12 11 9 8 6 12 18 19 18 19
11 10 9 7 8 7 8 6 5 7 8 6 5 5 6 5 5 4 4 5 6 5 5 4 4 4 6 7 8 9 9 9 11 11 12 12 10 11 6 13 21 19 18
12 10 9 6 8 7 5 5 4 5 7 5 4 4 5 3 4 4 4 5 5 5 5 4 4 5 4 6 8 9 11 9 9 7 9 9 12 10 8 9 6 8 20
12 10 8 8 7 5 4 3 3 3 4 4 4 5 5 4 5 5 3 4 4 4 6 5 4 5 4 4 4 8 7 8 4 8 5 6 10 10 7 8 5 4 6
12 11 9 8 7 4 2 2 2 4 4 4 3 4 5 5 3 4 5 5 5 4 5 5 4 4 3 4 3 4 7 6 7 7 7 8 12 9 7 7 8 7 6
11 11 9 8 7 5 6 4 4 4 3 5 3 2 2 3 4 4 5 5 6 5 4 5 4 4 3 3 5 2 4 3 10 5 6 5 12 10 8 8 9 3 3
11 11 9 8 7 6 7 6 7 3 2 1 1 1 3 3 3 4 4 5 5 4 5 4 5 3 3 6 3 2 2 4 3 7 7 5 10 10 9 6 7 5 4
13 11 9 8 7 7 7 7 5 3 2 2 2 4 3 4 4 3 3 5 6 4 5 6 6 6 3 2 2 3 4 2 3 3 6 10 8 6 7 6 5 5 6
13 11 10 9 6 8 7 7 3 4 1 2 4 4 4 3 4 4 5 4 5 5 5 5 5 6 5 4 3 3 3 3 2 2 3 6 8 2 4 6 6 5 5
Wind_Direction
44 60 58 61 57 55 56 58 70 67 63 60 60 58 58 62 60 56 72 83 90 89 86 99 108 37 10 288 259 302 122 140 148 166 183 175 185 165 166 163 171 136 122
103 70 62 67 66 64 63 64 63 65 65 56 54 48 53 50 53 71 61 72 70 99 88 23 5 347 334 323 304 292 241 195 173 179 182 188 184 188 185 179 222 137 127
71 60 59 63 67 64 65 66 63 63 64 64 66 64 57 46 65 50 63 45 46 60 74 45 8 14 3 346 334 310 260 226 209 227 203 173 183 193 182 161 126 130 139
86 76 72 70 73 72 67 64 65 64 64 60 54 58 60 63 69 69 64 60 50 43 40 25 45 48 337 338 320 303 288 258 237 227 237 229 200 188 181 168 154 150 152
99 88 81 78 75 73 70 68 65 62 58 54 52 52 55 50 43 40 39 48 44 22 29 353 1 191 178 282 290 281 266 268 271 259 206 238 253 171 167 164 170 170 158
106 97 90 85 82 78 75 73 70 67 64 58 56 53 55 56 51 47 40 28 15 6 358 342 282 258 226 213 232 257 253 243 256 252 241 239 245 179 182 173 180 179 185
113 105 103 100 95 89 81 76 73 70 64 53 44 38 36 55 70 63 55 49 25 342 324 315 320 318 285 254 237 234 247 251 250 240 247 244 219 190 176 167 192 188 199
121 122 114 112 109 103 97 85 70 56 45 41 32 23 4 2 52 69 57 45 26 4 345 333 317 301 290 277 261 254 247 233 242 246 261 239 193 202 199 191 187 180 205
121 118 112 113 113 109 105 99 94 79 58 41 26 22 17 12 12 27 74 29 10 345 334 326 318 306 294 275 269 257 248 245 224 231 246 245 192 210 215 178 172 185 198
126 120 115 139 130 127 120 115 106 89 74 58 37 24 17 9 3 358 13 355 334 320 322 313 305 296 283 282 273 269 273 271 279 270 251 251 211 192 192 183 195 190 192
106 112 144 173 156 144 131 133 100 70 66 66 48 40 22 7 2 13 1 4 358 351 324 300 302 283 284 274 268 269 270 261 266 266 265 259 242 215 195 196 195 199 188
100 78 67 53 33 50 82 78 58 56 73 80 58 42 28 16 16 7 1 358 350 345 352 348 337 334 336 346 317 313 279 254 229 251 257 262 268 232 211 207 191 196 214
114 102 90 80 67 52 49 59 55 53 56 84 60 56 43 23 14 0 355 347 335 349 359 360 356 11 5 1 353 341 323 267 242 238 244 255 250 256 252 223 195 186 258
113 120 91 69 69 59 52 58 74 57 51 77 64 53 41 27 15 2 351 336 349 359 356 3 8 2 359 356 352 346 340 331 309 249 236 257 266 259 259 277 233 204 213
101 104 100 85 70 68 51 41 67 55 67 74 60 50 43 43 20 356 344 347 5 359 0 4 4 358 354 344 340 339 331 322 311 306 263 256 260 263 277 267 261 227 218
69 60 100 86 73 70 42 28 91 60 76 82 66 54 50 49 26 357 341 13 9 359 356 359 353 344 343 334 327 327 321 312 308 304 285 280 281 273 273 274 270 269 255
78 65 63 84 54 66 37 27 87 72 76 83 77 56 49 41 31 355 345 13 353 344 341 346 341 341 333 321 315 311 310 305 306 303 304 283 270 288 285 273 272 288 272
92 73 58 43 28 36 30 34 67 75 75 79 78 62 51 36 21 359 356 350 334 334 330 340 337 334 323 318 318 308 309 305 298 290 288 289 270 238 255 251 253 237 201
93 90 77 48 26 9 30 34 65 73 77 79 73 63 55 47 14 6 351 332 327 325 327 332 336 312 322 316 308 309 298 291 291 294 293 289 275 260 230 235 241 240 226
91 88 78 56 30 15 38 27 40 58 91 83 79 67 59 35 3 13 344 326 323 329 321 329 322 316 296 296 306 306 290 283 279 282 279 299 274 256 234 223 227 242 232
107 96 94 72 35 32 38 34 17 50 89 83 80 59 47 19 1 1 337 319 326 335 322 355 304 313 312 319 307 313 294 292 94 332 294 301 326 269 228 226 218 216 254
119 116 102 98 67 27 16 42 28 106 66 108 98 55 21 7 355 341 339 326 332 335 335 333 337 311 295 344 323 309 340 332 341 329 337 353 348 338 318 239 195 194 208
126 120 114 115 95 55 42 42 20 73 38 37 21 34 296 342 340 320 328 336 342 344 334 325 319 343 309 304 353 337 336 329 323 337 337 345 342 344 350 19 21 24 185
128 119 115 103 113 83 59 55 60 67 93 255 249 251 286 303 296 323 343 355 340 338 339 324 330 310 313 330 343 330 188 267 331 321 339 331 346 340 18 4 24 14 22
132 129 122 115 108 115 90 81 67 32 66 324 327 347 328 322 336 317 1 1 341 329 314 322 327 330 301 304 301 311 317 273 233 289 320 335 334 356 11 335 28 357 9
133 133 125 120 124 115 115 112 107 94 65 20 357 14 343 346 347 356 359 359 343 325 320 320 314 327 310 306 306 298 280 287 290 295 296 321 306 312 6 353 23 9 4